This is the latest recevied weather packets stored in our database for station/object KF6ILA. If no packets are shown the sender has not sent any weather packets the latest 10 day(s).
| Time | Temp. | Humidity | Pressure | Rain* | Wind** | Luminosity | Snow |
|---|---|---|---|---|---|---|---|
| 1777573652 | 19.44° C | 38% | 1010.8 hPa | 0 mm | - | 589 W/m² | - |
| 1777573355 | 19.44° C | 40% | 1010.8 hPa | 0 mm | - | 550 W/m² | - |
| 1777573058 | 18.89° C | 42% | 1010.8 hPa | 0 mm | - | 573 W/m² | - |
| 1777572762 | 18.89° C | 42% | 1010.8 hPa | 0 mm | - | 526 W/m² | - |
| 1777572521 | 18.89° C | 41% | 1010.8 hPa | 0 mm | - | 557 W/m² | - |
| 1777572465 | 18.89° C | 41% | 1010.8 hPa | 0 mm | - | 557 W/m² | - |
| 1777572167 | 18.33° C | 46% | 1010.8 hPa | 0 mm | - | 550 W/m² | - |
| 1777571870 | 17.78° C | 46% | 1010.9 hPa | 0 mm | - | 547 W/m² | - |
| 1777571663 | 17.78° C | 46% | 1011 hPa | 0 mm | - | 464 W/m² | - |
| 1777571574 | 17.78° C | 46% | 1011 hPa | 0 mm | - | 464 W/m² | - |
| 1777571333 | 17.22° C | 46% | 1011 hPa | 0 mm | - | 427 W/m² | - |
| 1777571276 | 17.22° C | 46% | 1011 hPa | 0 mm | - | 427 W/m² | - |
| 1777570980 | 17.22° C | 47% | 1011 hPa | 0 mm | - | 436 W/m² | - |
| 1777570386 | 16.11° C | 48% | 1011 hPa | 0 mm | - | 427 W/m² | - |
| 1777570089 | 15.56° C | 51% | 1011 hPa | 0 mm | - | 443 W/m² | - |
| 1777569792 | 15.56° C | 52% | 1011 hPa | 0 mm | - | 443 W/m² | - |
| 1777569198 | 15.56° C | 54% | 1011 hPa | 0 mm | - | 459 W/m² | - |
| 1777568901 | 15.56° C | 52% | 1011.1 hPa | 0 mm | - | 471 W/m² | - |
| 1777568604 | 16.67° C | 48% | 1011.1 hPa | 0 mm | - | 408 W/m² | - |
| 1777567119 | 16.67° C | 43% | 1011.1 hPa | 0 mm | - | 304 W/m² | - |
| 1777565337 | 14.44° C | 44% | 1011.2 hPa | 0 mm | - | 265 W/m² | - |
| 1777565043 | 14.44° C | - | - | 0 mm | - | - | - |
| 1777565040 | 14.44° C | - | - | 0 mm | - | - | - |
| 1777565040 | 14.44° C | - | - | 0 mm | - | - | - |
| 1777564743 | 13.89° C | 43% | 1011.1 hPa | 0 mm | - | 313 W/m² | - |
* Rain latest hour (hover to see other rain measurements)
** Current wind speed in m/s (hover to see current wind gust speed)